OK,124,38,779,124,2014-10-01T01:40:00,0,28072101,206502
OK,124,38,779,124,2014-10-01T01:45:00,0,28072549,206502
OK,124,38,779,124,2014-10-01T01:50:00,0,28072998,206502
OK,124,38,779,124,2014-10-01T01:55:00,0,28073445,206502
OK,124,38,779,124,2014-10-01T02:05:00,0,28074211,206502
OK,124,38,779,124,2014-10-01T02:10:00,0,28074655,206502
OK,124,38,779,124,2014-10-01T02:15:00,0,28075100,206502
OK,124,38,779,124,2014-10-01T02:20:00,0,28075549,206502
OK,124,38,779,124,2014-10-01T02:25:00,0,28075994,206502
OK,124,38,779,124,2014-10-01T02:30:00,0,28076381,206502
OK,124,38,779,124,2014-10-01T02:35:00,0,28076830,206502
OK,124,38,779,124,2014-10-01T02:40:00,0,28077279,206502
OK,124,38,779,124,2014-10-01T02:45:00,0,28077719,206502
OK,124,38,779,124,2014-10-01T02:50:00,0,28078131,206502
OK,124,38,779,124,2014-10-01T02:55:00,0,28078580,206502
OK,124,38,779,124,2014-10-01T03:00:00,0,28079025,206502
OK,124,38,779,124,2014-10-01T03:05:00,0,28079473,206502
OK,124,38,779,124,2014-10-01T03:10:00,0,28079916,206502
OK,124,38,779,124,2014-10-01T03:20:00,0,28080699,206502
OK,124,38,779,124,2014-10-01T03:25:00,0,28081148,206502
OK,124,38,779,124,2014-10-01T03:30:00,0,28081596,206502
OK,124,38,779,124,2014-10-01T03:35:00,0,28082044,206502
OK,124,38,779,124,2014-10-01T03:40:00,0,28082493,206502
OK,124,38,779,124,2014-10-01T03:45:00,0,28082926,206502
OK,124,38,779,124,2014-10-01T03:50:00,0,28083358,206502
OK,124,38,779,124,2014-10-01T03:55:00,0,28083807,206502
OK,124,38,779,124,2014-10-01T04:00:00,0,28084256,206502
OK,124,38,779,124,2014-10-01T04:05:00,0,28084697,206502
OK,124,38,779,124,2014-10-01T04:10:00,0,28085122,206502
OK,124,38,779,124,2014-10-01T04:15:00,0,28085571,206502
OK,124,38,779,124,2014-10-01T04:20:00,0,28086016,206502
OK,124,38,779,124,2014-10-01T04:25:00,0,28086465,206502
OK,124,38,779,124,2014-10-01T04:30:00,0,28086907,206502
OK,124,38,779,124,2014-10-01T04:35:00,0,28087356,206502
OK,124,38,779,124,2014-10-01T04:40:00,0,28087801,206502
OK,124,38,779,124,2014-10-01T04:45:00,0,28088250,206502
OK,124,38,779,124,2014-10-01T04:50:00,0,28088674,206502
OK,124,38,779,124,2014-10-01T04:55:00,0,28089123,206502
OK,124,38,779,124,2014-10-01T05:00:00,0,28089553,206502
OK,124,38,779,124,2014-10-01T05:05:00,0,28090002,206502
OK,124,38,779,124,2014-10-01T05:10:00,0,28090451,206502
OK,124,38,779,124,2014-10-01T05:15:00,0,28090795,206502
OK,124,38,779,124,2014-10-01T05:20:00,0,28091244,206502
OK,124,38,779,124,2014-10-01T05:25:00,0,28091693,206502
OK,124,38,779,124,2014-10-01T05:30:00,0,28092110,206502
OK,124,38,779,124,2014-10-01T05:35:00,0,28092558,206502
OK,124,38,779,124,2014-10-01T05:40:00,0,28093003,206502
OK,124,38,779,124,2014-10-01T05:45:00,0,28093444,206502
OK,193,24,779,193,2014-10-01T05:50:00,2,28093875,206502
OK,199,24,779,199,2014-10-01T05:55:00,6,28094323,206502
OK,192,25,779,192,2014-10-01T06:00:00,5,28094734,206502
OK,175,27,779,175,2014-10-01T06:05:00,2,28095180,206502
OK,175,27,779,175,2014-10-01T06:10:00,0,28095627,206502
OK,175,27,779,175,2014-10-01T06:15:00,0,28096074,206502
OK,175,27,779,175,2014-10-01T06:20:00,0,28096489,206502
OK,175,27,779,175,2014-10-01T06:25:00,0,28096938,206502
OK,158,30,779,158,2014-10-01T06:30:00,1,28097372,206502
OK,158,30,779,158,2014-10-01T06:35:00,1,28097821,206502
OK,248,19,779,248,2014-10-01T06:40:00,1,28098270,206502
OK,248,19,779,248,2014-10-01T06:45:00,1,28098707,206502
OK,248,19,779,248,2014-10-01T06:50:00,0,28099151,206502
OK,361,13,779,361,2014-10-01T07:00:00,1,28099942,206502
OK,223,21,779,223,2014-10-01T07:10:00,1,28100698,206502
OK,223,21,779,223,2014-10-01T07:20:00,0,28101518,206502
OK,223,21,779,223,2014-10-01T07:25:00,1,28101967,206502
OK,223,21,779,223,2014-10-01T07:30:00,1,28102403,206502
OK,223,21,779,223,2014-10-01T07:35:00,0,28102852,206502
OK,223,21,779,223,2014-10-01T07:40:00,0,28103279,206502
OK,223,21,779,223,2014-10-01T07:45:00,0,28103726,206502
OK,223,21,779,223,2014-10-01T07:50:00,0,28104171,206502
OK,223,21,779,223,2014-10-01T07:55:00,0,28104616,206502
OK,205,23,779,205,2014-10-01T08:00:00,1,28105057,206502
OK,205,23,779,205,2014-10-01T08:05:00,1,28105502,206502
OK,205,23,779,205,2014-10-01T08:10:00,0,28105942,206502
OK,205,23,779,205,2014-10-01T08:15:00,0,28106391,206502
OK,205,23,779,205,2014-10-01T08:20:00,0,28106809,206502
OK,205,23,779,205,2014-10-01T08:30:00,0,28107666,206502
OK,205,23,779,205,2014-10-01T08:35:00,0,28108115,206502
OK,205,23,779,205,2014-10-01T08:40:00,0,28108554,206502
OK,205,23,779,205,2014-10-01T08:45:00,0,28109003,206502
OK,205,23,779,205,2014-10-01T08:50:00,0,28109431,206502
OK,151,31,779,151,2014-10-01T09:00:00,2,28110223,206502
OK,118,40,779,118,2014-10-01T09:05:00,2,28110668,206502
OK,111,43,779,111,2014-10-01T09:10:00,0,28111095,206502
OK,111,43,779,111,2014-10-01T09:15:00,0,28111540,206502
OK,137,35,779,137,2014-10-01T09:20:00,1,28111973,206502
OK,144,33,779,144,2014-10-01T09:30:00,1,28112763,206502
OK,144,33,779,144,2014-10-01T09:35:00,0,28113209,206502
OK,144,33,779,144,2014-10-01T09:40:00,0,28113636,206502
OK,144,33,779,144,2014-10-01T09:45:00,0,28114080,206502
OK,144,33,779,144,2014-10-01T09:50:00,0,28114517,206502
OK,218,22,779,218,2014-10-01T10:00:00,0,28115320,206502
OK,147,32,779,147,2014-10-01T10:05:00,1,28115767,206502
OK,123,39,779,123,2014-10-01T10:10:00,1,28116181,206502
OK,143,33,779,143,2014-10-01T10:15:00,2,28116626,206502
OK,160,30,779,160,2014-10-01T10:20:00,1,28117038,206502
OK,162,29,779,162,2014-10-01T10:25:00,1,28117482,206502
OK,162,29,779,162,2014-10-01T10:30:00,1,28117912,206502
OK,162,29,779,162,2014-10-01T10:35:00,0,28118361,206502
OK,162,29,779,162,2014-10-01T10:40:00,0,28118806,206502
OK,162,29,779,162,2014-10-01T10:45:00,0,28119253,206502
OK,162,29,779,162,2014-10-01T10:50:00,0,28119697,206502
OK,162,29,779,162,2014-10-01T10:55:00,0,28120145,206502
OK,162,29,779,162,2014-10-01T11:00:00,0,28120593,206502
OK,163,29,779,163,2014-10-01T11:10:00,1,28121425,206502
OK,187,25,779,187,2014-10-01T11:15:00,2,28121869,206502
OK,211,22,779,211,2014-10-01T11:20:00,1,28122312,206502
OK,243,19,779,243,2014-10-01T11:25:00,1,28122758,206502
OK,243,19,779,243,2014-10-01T11:30:00,0,28123202,206502
OK,243,19,779,243,2014-10-01T11:35:00,0,28123645,206502
OK,129,37,779,129,2014-10-01T11:40:00,1,28124083,206502
OK,129,37,779,129,2014-10-01T11:45:00,1,28124526,206502
OK,129,37,779,129,2014-10-01T11:50:00,0,28124934,206502
OK,129,37,779,129,2014-10-01T11:55:00,0,28125382,206502
OK,217,22,779,217,2014-10-01T12:00:00,1,28125812,206502
OK,238,20,779,238,2014-10-01T12:10:00,1,28126613,206502
OK,208,23,779,208,2014-10-01T12:15:00,2,28127062,206502
OK,106,45,779,106,2014-10-01T12:20:00,1,28127511,206502
OK,150,32,779,150,2014-10-01T12:25:00,2,28127952,206502
OK,208,23,779,208,2014-10-01T12:30:00,2,28128388,206502
OK,228,21,779,228,2014-10-01T12:35:00,1,28128835,206502
OK,228,21,779,228,2014-10-01T12:40:00,1,28129272,206502
OK,228,21,779,228,2014-10-01T12:45:00,0,28129711,206502
OK,235,20,779,235,2014-10-01T12:50:00,1,28130155,206502
OK,232,20,779,232,2014-10-01T12:55:00,2,28130592,206502
OK,229,20,779,229,2014-10-01T13:00:00,1,28131032,206502
OK,177,27,779,177,2014-10-01T13:05:00,1,28131475,206502
OK,204,23,779,204,2014-10-01T13:10:00,2,28131918,206502
OK,198,24,779,198,2014-10-01T13:15:00,1,28132358,206502
OK,252,19,779,252,2014-10-01T13:20:00,1,28132804,206502
OK,252,19,779,252,2014-10-01T13:25:00,1,28133242,206502
OK,183,26,779,183,2014-10-01T13:30:00,1,28133690,206502
OK,183,26,779,183,2014-10-01T13:40:00,0,28134578,206502
OK,183,26,779,183,2014-10-01T13:50:00,0,28135446,206502
OK,256,18,779,256,2014-10-01T14:00:00,1,28136332,206502
OK,256,18,779,256,2014-10-01T14:05:00,1,28136773,206502
OK,256,18,779,256,2014-10-01T14:10:00,0,28137221,206502
OK,243,19,779,243,2014-10-01T14:15:00,3,28137657,206502
OK,258,18,779,258,2014-10-01T14:20:00,4,28138104,206502
OK,245,19,779,245,2014-10-01T14:30:00,2,28138981,206502
OK,239,20,779,239,2014-10-01T14:40:00,4,28139841,206502
OK,245,19,779,245,2014-10-01T14:45:00,5,28140285,206502
OK,219,21,779,219,2014-10-01T14:50:00,3,28140732,206502
OK,210,22,779,210,2014-10-01T14:55:00,1,28141163,206502
OK,210,22,779,210,2014-10-01T15:00:00,0,28141607,206502
OK,210,22,779,210,2014-10-01T15:05:00,0,28142043,206502
OK,242,19,779,242,2014-10-01T15:10:00,2,28142484,206502
OK,209,22,779,209,2014-10-01T15:15:00,3,28142929,206502
OK,186,25,779,186,2014-10-01T15:20:00,0,28143360,206502
OK,186,25,779,186,2014-10-01T15:25:00,0,28143808,206502
OK,350,13,779,350,2014-10-01T15:30:00,2,28144257,206502
OK,350,13,779,350,2014-10-01T15:35:00,2,28144701,206502
OK,141,34,779,141,2014-10-01T15:45:00,1,28145541,206502
OK,141,34,779,141,2014-10-01T15:50:00,0,28145990,206502
OK,208,23,779,208,2014-10-01T15:55:00,3,28146439,206502
OK,208,23,779,208,2014-10-01T16:00:00,3,28146886,206502
OK,146,32,779,146,2014-10-01T16:05:00,1,28147296,206502
OK,146,32,779,146,2014-10-01T16:10:00,1,28147740,206502
OK,195,24,779,195,2014-10-01T16:20:00,2,28148590,206502
OK,166,28,779,166,2014-10-01T16:25:00,1,28149034,206502
OK,166,28,779,166,2014-10-01T16:30:00,0,28149478,206502
OK,158,30,779,158,2014-10-01T16:35:00,1,28149919,206502
OK,158,30,779,158,2014-10-01T16:40:00,0,28150353,206502
OK,158,30,779,158,2014-10-01T16:45:00,0,28150790,206502
OK,158,30,779,158,2014-10-01T16:50:00,0,28151220,206502
OK,411,11,779,411,2014-10-01T16:55:00,1,28151669,206502
OK,150,32,779,150,2014-10-01T17:05:00,1,28152118,206502
OK,143,33,779,143,2014-10-01T17:10:00,1,28152564,206502
OK,143,33,779,143,2014-10-01T17:15:00,0,28153012,206502
OK,143,33,779,143,2014-10-01T17:20:00,0,28153460,206502
OK,131,36,779,131,2014-10-01T17:25:00,1,28153907,206502
OK,131,36,779,131,2014-10-01T17:30:00,1,28154319,206502
OK,131,36,779,131,2014-10-01T17:35:00,0,28154768,206502
OK,131,36,779,131,2014-10-01T17:40:00,0,28155210,206502
OK,131,36,779,131,2014-10-01T17:45:00,0,28155651,206502
OK,131,36,779,131,2014-10-01T17:50:00,0,28156076,206502
OK,131,36,779,131,2014-10-01T17:55:00,0,28156525,206502
OK,131,36,779,131,2014-10-01T18:00:00,0,28156972,206502
OK,131,36,779,131,2014-10-01T18:10:00,0,28157841,206502
OK,131,36,779,131,2014-10-01T18:15:00,0,28158289,206502
OK,131,36,779,131,2014-10-01T18:20:00,0,28158732,206502
OK,131,36,779,131,2014-10-01T18:25:00,0,28159177,206502
OK,131,36,779,131,2014-10-01T18:35:00,0,28159961,206502
OK,131,36,779,131,2014-10-01T18:40:00,0,28160410,206502
OK,131,36,779,131,2014-10-01T18:45:00,0,28160858,206502
OK,144,33,779,144,2014-10-01T18:50:00,1,28161297,206502
OK,144,33,779,144,2014-10-01T18:55:00,0,28161726,206502
OK,144,33,779,144,2014-10-01T19:00:00,0,28162163,206502
OK,144,33,779,144,2014-10-01T19:05:00,0,28162611,206502
OK,144,33,779,144,2014-10-01T19:10:00,0,28163002,206502
OK,144,33,779,144,2014-10-01T19:15:00,0,28163444,206502
OK,144,33,779,144,2014-10-01T19:20:00,0,28163893,206502
OK,144,33,779,144,2014-10-01T19:25:00,0,28164331,206502
OK,144,33,779,144,2014-10-01T19:30:00,0,28164773,206502
OK,144,33,779,144,2014-10-01T19:35:00,0,28165214,206502
OK,144,33,779,144,2014-10-01T19:40:00,0,28165646,206502
OK,144,33,779,144,2014-10-01T19:45:00,0,28166089,206502
OK,180,26,779,180,2014-10-01T19:55:00,1,28166898,206502
OK,180,26,779,180,2014-10-01T20:00:00,0,28167761,206502
OK,180,26,779,180,2014-10-01T20:05:00,0,28168209,206502
OK,180,26,779,180,2014-10-01T20:10:00,0,28168654,206502
OK,180,26,779,180,2014-10-01T20:20:00,0,28169103,206502
OK,180,26,779,180,2014-10-01T20:25:00,0,28169551,206502
OK,180,26,779,180,2014-10-01T20:30:00,0,28170422,206502
OK,180,26,779,180,2014-10-01T20:35:00,0,28170870,206502
OK,180,26,779,180,2014-10-01T20:40:00,0,28171307,206502
OK,180,26,779,180,2014-10-01T20:45:00,0,28171753,206502
OK,180,26,779,180,2014-10-01T20:50:00,0,28172201,206502
OK,180,26,779,180,2014-10-01T20:55:00,0,28172647,206502
OK,180,26,779,180,2014-10-01T21:00:00,0,28173093,206502
OK,180,26,779,180,2014-10-01T21:05:00,0,28173542,206502
OK,180,26,779,180,2014-10-01T21:10:00,0,28173983,206502
OK,180,26,779,180,2014-10-01T21:15:00,0,28174432,206502
OK,180,26,779,180,2014-10-01T21:20:00,0,28174858,206502
OK,180,26,779,180,2014-10-01T21:25:00,0,28175254,206502
OK,180,26,779,180,2014-10-01T21:30:00,0,28175703,206502
OK,136,35,779,136,2014-10-01T21:35:00,1,28176152,206502
OK,136,35,779,136,2014-10-01T21:45:00,0,28176601,206502
OK,136,35,779,136,2014-10-01T21:50:00,0,28177397,206502
OK,136,35,779,136,2014-10-01T21:55:00,0,28177843,206502
OK,136,35,779,136,2014-10-01T22:05:00,0,28178292,206502
OK,136,35,779,136,2014-10-01T22:10:00,0,28178740,206502
OK,136,35,779,136,2014-10-01T22:15:00,0,28179180,206502
OK,136,35,779,136,2014-10-01T22:25:00,0,28180063,206502
OK,136,35,779,136,2014-10-01T22:30:00,0,28180910,206502
OK,136,35,779,136,2014-10-01T22:35:00,0,28181334,206502
OK,136,35,779,136,2014-10-01T22:40:00,0,28181782,206502
OK,136,35,779,136,2014-10-01T22:45:00,0,28182229,206502
OK,136,35,779,136,2014-10-01T22:50:00,0,28182678,206502
OK,136,35,779,136,2014-10-01T22:55:00,0,28183095,206502
OK,136,35,779,136,2014-10-01T23:00:00,0,28183528,206502
OK,136,35,779,136,2014-10-01T23:05:00,0,28183973,206502
OK,136,35,779,136,2014-10-01T23:10:00,0,28184422,206502
OK,136,35,779,136,2014-10-01T23:15:00,0,28184857,206502
OK,136,35,779,136,2014-10-01T23:20:00,0,28185305,206502
OK,204,23,779,204,2014-10-01T23:25:00,1,28185736,206502
OK,204,23,779,204,2014-10-01T23:30:00,1,28186128,206502
OK,204,23,779,204,2014-10-01T23:35:00,0,28186577,206502
OK,204,23,779,204,2014-10-01T23:40:00,0,28186975,206502
OK,204,23,779,204,2014-10-01T23:45:00,0,28187417,206502
OK,204,23,779,204,2014-10-01T23:50:00,0,28187866,206502
OK,204,23,779,204,2014-10-01T23:55:00,0,28188307,206502
OK,204,23,779,204,2014-10-02T00:00:00,0,28188743,206502
OK,204,23,779,204,2014-10-02T00:10:00,0,28189192,206502
OK,204,23,779,204,2014-10-02T00:15:00,0,28189629,206502
OK,204,23,779,204,2014-10-02T00:20:00,0,28190063,206502
OK,204,23,779,204,2014-10-02T00:30:00,0,28190865,206502
OK,204,23,779,204,2014-10-02T00:35:00,0,28191314,206502
OK,204,23,779,204,2014-10-02T00:45:00,0,28192069,206502
OK,204,23,779,204,2014-10-02T00:50:00,0,28192509,206502
OK,204,23,779,204,2014-10-02T00:55:00,0,28192947,206502
OK,204,23,779,204,2014-10-02T01:00:00,0,28193762,206502
OK,204,23,779,204,2014-10-02T01:10:00,0,28194211,206502
OK,204,23,779,204,2014-10-02T01:15:00,0,28194660,206502
OK,204,23,779,204,2014-10-02T01:25:00,0,28195345,206502
OK,204,23,779,204,2014-10-02T01:30:00,0,28195794,206502
OK,204,23,779,204,2014-10-02T01:35:00,0,28196234,206502
OK,204,23,779,204,2014-10-02T01:40:00,0,28196527,206502
OK,204,23,779,204,2014-10-02T01:45:00,0,28196958,206502
OK,204,23,779,204,2014-10-02T01:50:00,0,28197399,206502
OK,204,23,779,204,2014-10-02T01:55:00,0,28197848,206502
OK,204,23,779,204,2014-10-02T02:00:00,0,28198295,206502
OK,204,23,779,204,2014-10-02T02:05:00,0,28198744,206502
OK,204,23,779,204,2014-10-02T02:10:00,0,28199184,206502
OK,204,23,779,204,2014-10-02T02:15:00,0,28200000,206502
OK,204,23,779,204,2014-10-02T02:20:00,0,28200443,206502
OK,204,23,779,204,2014-10-02T02:30:00,0,28200892,206502
OK,204,23,779,204,2014-10-02T02:50:00,0,28202221,206502
OK,204,23,779,204,2014-10-02T03:00:00,0,28203111,206502
OK,204,23,779,204,2014-10-02T03:10:00,0,28203995,206502
OK,204,23,779,204,2014-10-02T03:25:00,0,28204444,206502
OK,204,23,779,204,2014-10-02T03:35:00,0,28204893,206502
OK,204,23,779,204,2014-10-02T03:40:00,0,28205333,206502
OK,165,29,779,165,2014-10-02T03:45:00,0,28205769,206502
OK,165,29,779,165,2014-10-02T03:55:00,0,28206600,206502
OK,152,31,779,152,2014-10-02T04:00:00,1,28207049,206502
OK,152,31,779,152,2014-10-02T04:10:00,0,28207917,206502
OK,152,31,779,152,2014-10-02T04:15:00,0,28208358,206502
OK,152,31,779,152,2014-10-02T04:20:00,0,28208793,206502
OK,152,31,779,152,2014-10-02T04:25:00,0,28209236,206502
OK,152,31,779,152,2014-10-02T04:30:00,0,28209680,206502
OK,152,31,779,152,2014-10-02T04:35:00,0,28210126,206502
OK,152,31,779,152,2014-10-02T04:40:00,0,28210552,206502
OK,152,31,779,152,2014-10-02T04:45:00,0,28210996,206502
OK,152,31,779,152,2014-10-02T04:50:00,0,28211423,206502
OK,152,31,779,152,2014-10-02T05:00:00,0,28212248,206502
OK,100,48,779,100,2014-10-02T05:05:00,1,28212697,206502
OK,100,48,779,100,2014-10-02T05:10:00,1,28213126,206502
OK,100,48,779,100,2014-10-02T05:15:00,0,28213575,206502
OK,100,48,779,100,2014-10-02T05:20:00,0,28214013,206502
OK,100,48,779,100,2014-10-02T05:25:00,0,28214461,206502
OK,100,48,779,100,2014-10-02T05:30:00,0,28214875,206502
OK,100,48,779,100,2014-10-02T05:35:00,0,28215318,206502
OK,163,29,779,163,2014-10-02T05:40:00,1,28215740,206502
OK,163,29,779,163,2014-10-02T05:45:00,0,28216189,206502
OK,163,29,779,163,2014-10-02T05:50:00,0,28216525,206502
OK,163,29,779,163,2014-10-02T05:55:00,0,28216968,206502
OK,163,29,779,163,2014-10-02T06:00:00,0,28217415,206502
OK,163,29,779,163,2014-10-02T06:05:00,0,28217863,206502
OK,163,29,779,163,2014-10-02T06:10:00,0,28218303,206502
OK,146,32,779,146,2014-10-02T06:15:00,3,28218747,206502
OK,146,32,779,146,2014-10-02T06:20:00,3,28219172,206502
OK,169,28,779,169,2014-10-02T06:30:00,1,28219994,206502
OK,153,31,779,153,2014-10-02T06:35:00,2,28220433,206502
OK,138,34,779,138,2014-10-02T06:40:00,1,28220877,206502
OK,138,34,779,138,2014-10-02T06:45:00,0,28221318,206502
OK,161,29,779,161,2014-10-02T07:05:00,0,28222138,206502
OK,174,27,779,174,2014-10-02T07:10:00,1,28222587,206502
OK,174,27,779,174,2014-10-02T07:15:00,1,28223028,206502
OK,174,27,779,174,2014-10-02T07:25:00,0,28223901,206502
OK,174,27,779,174,2014-10-02T07:35:00,0,28224705,206502
OK,174,27,779,174,2014-10-02T07:40:00,0,28225154,206502
OK,164,29,779,164,2014-10-02T07:50:00,1,28225925,206502
OK,165,29,779,165,2014-10-02T07:55:00,2,28226373,206502
OK,165,29,779,165,2014-10-02T08:00:00,0,28226815,206502
OK,99,48,779,99,2014-10-02T08:05:00,2,28227261,206502
OK,101,47,779,101,2014-10-02T08:10:00,0,28227679,206502
OK,101,47,779,101,2014-10-02T08:20:00,0,28228487,206502
OK,101,47,779,101,2014-10-02T08:25:00,0,28228931,206502
OK,101,47,779,101,2014-10-02T08:30:00,0,28229346,206502
OK,197,24,779,197,2014-10-02T08:40:00,0,28230145,206502
OK,160,30,779,160,2014-10-02T08:50:00,1,28230960,206502
OK,160,30,779,160,2014-10-02T08:55:00,0,28231406,206502
OK,160,30,779,160,2014-10-02T09:00:00,0,28231832,206502
OK,160,30,779,160,2014-10-02T09:15:00,0,28232623,206502
OK,160,30,779,160,2014-10-02T09:20:00,0,28233072,206502
OK,160,30,779,160,2014-10-02T09:25:00,0,28233519,206502
OK,160,30,779,160,2014-10-02T09:30:00,0,28233945,206502
OK,172,27,779,172,2014-10-02T09:40:00,0,28234727,206502
OK,172,27,779,172,2014-10-02T09:50:00,0,28235603,206502
OK,172,27,779,172,2014-10-02T09:55:00,0,28236049,206502
OK,172,27,779,172,2014-10-02T10:00:00,0,28236493,206502
OK,172,27,779,172,2014-10-02T10:10:00,0,28237344,206502
OK,144,33,779,144,2014-10-02T10:15:00,1,28237792,206502
OK,144,33,779,144,2014-10-02T10:20:00,1,28238240,206502
OK,144,33,779,144,2014-10-02T10:25:00,0,28238685,206502
OK,144,33,779,144,2014-10-02T10:30:00,0,28239129,206502
OK,144,33,779,144,2014-10-02T10:35:00,0,28239564,206502
OK,144,33,779,144,2014-10-02T10:40:00,0,28240008,206502
OK,144,33,779,144,2014-10-02T10:45:00,0,28240454,206502
OK,144,33,779,144,2014-10-02T10:50:00,0,28240901,206502
OK,143,33,779,143,2014-10-02T10:55:00,1,28241350,206502
OK,143,33,779,143,2014-10-02T11:00:00,0,28241781,206502
OK,193,24,779,193,2014-10-02T11:10:00,1,28242626,206502
OK,193,24,779,193,2014-10-02T11:15:00,0,28243075,206502
OK,224,21,779,224,2014-10-02T11:20:00,1,28243524,206502
OK,224,21,779,224,2014-10-02T11:25:00,0,28243845,206502
OK,127,37,779,127,2014-10-02T11:35:00,1,28244716,206502
OK,127,37,779,127,2014-10-02T11:40:00,0,28245165,206502
OK,127,37,779,127,2014-10-02T11:50:00,0,28246020,206502
OK,145,33,779,145,2014-10-02T12:00:00,2,28246906,206502
OK,118,40,779,118,2014-10-02T12:05:00,0,28247353,206502
OK,118,40,779,118,2014-10-02T12:10:00,0,28247786,206502
OK,225,21,779,225,2014-10-02T12:15:00,0,28248231,206502
OK,225,21,779,225,2014-10-02T12:20:00,0,28248679,206502
OK,182,26,779,182,2014-10-02T12:25:00,2,28249115,206502
OK,201,23,779,201,2014-10-02T12:30:00,1,28249550,206502
OK,198,24,779,198,2014-10-02T12:35:00,1,28250367,206502
OK,181,26,779,181,2014-10-02T12:45:00,1,28251147,206502
OK,200,24,779,200,2014-10-02T13:20:00,1,28251692,206502
OK,236,20,779,236,2014-10-02T13:30:00,5,28252276,206502
OK,206,23,779,206,2014-10-02T13:35:00,2,28252718,206502
OK,194,24,779,194,2014-10-02T13:40:00,0,28253135,206502
OK,200,24,779,200,2014-10-02T13:50:00,0,28253584,206502
OK,200,24,779,200,2014-10-02T13:55:00,0,28254310,206502
OK,200,24,779,200,2014-10-02T14:10:00,0,28254887,206502
OK,312,15,779,312,2014-10-02T14:20:00,2,28255336,206502
OK,293,16,779,293,2014-10-02T14:25:00,0,28256213,206502
OK,261,18,779,261,2014-10-02T14:30:00,3,28256641,206502
OK,253,18,779,253,2014-10-02T14:35:00,2,28257090,206502
OK,225,21,779,225,2014-10-02T14:40:00,1,28257531,206502
OK,243,19,779,243,2014-10-02T14:45:00,2,28257979,206502
OK,255,18,779,255,2014-10-02T14:50:00,5,28258412,206502
OK,262,18,779,262,2014-10-02T14:55:00,4,28258858,206502
OK,279,17,779,279,2014-10-02T15:00:00,1,28259307,206502
OK,198,24,779,198,2014-10-02T15:10:00,1,28259754,206502
OK,184,26,779,184,2014-10-02T15:15:00,2,28260636,206502
OK,170,28,779,170,2014-10-02T15:20:00,1,28261076,206502
OK,197,24,779,197,2014-10-02T15:25:00,3,28261458,206502
OK,197,24,779,197,2014-10-02T15:30:00,3,28261888,206502
OK,227,21,779,227,2014-10-02T15:35:00,1,28262335,206502
OK,227,21,779,227,2014-10-02T15:40:00,0,28262781,206502
OK,187,25,779,187,2014-10-02T15:45:00,1,28263219,206502
OK,187,25,779,187,2014-10-02T15:50:00,0,28263660,206502
OK,187,25,779,187,2014-10-02T15:55:00,0,28264062,206502
OK,187,25,779,187,2014-10-02T16:00:00,0,28264511,206502
OK,138,34,779,138,2014-10-02T16:05:00,0,28264949,206502
OK,123,39,779,123,2014-10-02T16:10:00,1,28265389,206502
OK,123,39,779,123,2014-10-02T16:15:00,1,28265785,206502
OK,129,37,779,129,2014-10-02T16:20:00,1,28266234,206502
OK,129,37,779,129,2014-10-02T16:30:00,0,28266683,206502
OK,129,37,779,129,2014-10-02T16:35:00,0,28267455,206502
OK,129,37,779,129,2014-10-02T16:40:00,0,28267904,206502
OK,129,37,779,129,2014-10-02T16:45:00,0,28268346,206502
OK,129,37,779,129,2014-10-02T16:50:00,0,28268795,206502
OK,222,21,779,222,2014-10-02T16:55:00,2,28269244,206502
OK,144,33,779,144,2014-10-02T17:00:00,1,28269679,206502
OK,144,33,779,144,2014-10-02T17:05:00,0,28270128,206502
OK,144,33,779,144,2014-10-02T17:10:00,0,28270562,206502
OK,144,33,779,144,2014-10-02T17:15:00,0,28271011,206502
OK,183,26,779,183,2014-10-02T17:20:00,2,28271441,206502
OK,212,22,779,212,2014-10-02T17:25:00,1,28271889,206502
OK,212,22,779,212,2014-10-02T17:30:00,0,28272325,206502
OK,212,22,779,212,2014-10-02T17:35:00,0,28272766,206502
OK,212,22,779,212,2014-10-02T17:40:00,0,28273214,206502
OK,212,22,779,212,2014-10-02T17:45:00,0,28273660,206502
OK,212,22,779,212,2014-10-02T17:55:00,0,28274109,206502
OK,122,39,779,122,2014-10-02T18:00:00,1,28274883,206502
OK,122,39,779,122,2014-10-02T18:05:00,1,28275322,206502
OK,122,39,779,122,2014-10-02T18:10:00,0,28275767,206502
OK,122,39,779,122,2014-10-02T18:15:00,0,28276213,206502
OK,122,39,779,122,2014-10-02T18:20:00,0,28276609,206502
OK,122,39,779,122,2014-10-02T18:30:00,0,28277058,206502
OK,103,46,779,103,2014-10-02T18:40:00,0,28277507,206502
OK,103,46,779,103,2014-10-02T18:45:00,0,28278304,206502
OK,103,46,779,103,2014-10-02T19:00:00,0,28278753,206502
OK,107,44,779,107,2014-10-02T19:05:00,0,28279202,206502
OK,107,44,779,107,2014-10-02T19:10:00,0,28279647,206502
OK,107,44,779,107,2014-10-02T19:15:00,0,28280088,206502
OK,107,44,779,107,2014-10-02T19:20:00,0,28280535,206502
OK,107,44,779,107,2014-10-02T19:25:00,0,28280939,206502